Theta_e
344 346 347 346 347 347 347 348 349 348 347 344 343 344 344 344 345 345 344 344 344 344 345 345 346 348 349 349 348 345 342 340 340 341 341 342 341 340 341 342 342 343
341 342 344 346 347 347 346 346 347 348 348 346 344 344 345 345 346 345 344 344 345 345 345 344 346 348 348 349 348 345 344 342 340 341 341 341 341 340 341 341 342 344
337 339 341 344 346 346 345 346 346 346 347 346 345 344 345 347 346 344 344 344 344 345 345 344 345 346 346 348 348 346 346 345 342 341 342 341 340 340 340 340 341 344
335 336 338 341 343 342 342 345 347 344 344 345 346 345 344 346 346 344 345 344 343 344 344 344 345 345 345 347 347 347 348 348 345 343 344 342 340 339 339 339 340 341
335 335 336 339 341 340 339 342 344 343 341 342 345 346 345 344 344 344 344 344 342 342 344 344 344 345 344 345 346 346 347 348 346 345 345 344 341 339 338 338 339 339
337 336 336 338 339 339 339 339 340 340 340 339 342 344 345 344 343 342 343 344 343 342 342 344 344 344 344 344 345 345 344 346 346 345 345 345 342 341 341 342 342 341
338 337 336 337 338 339 340 339 339 338 338 338 339 341 343 344 343 342 341 342 343 343 342 342 343 344 344 344 344 344 344 345 345 345 346 346 344 343 343 345 347 346
336 337 337 337 337 338 339 339 339 338 338 339 338 339 344 345 345 344 343 342 342 342 342 341 342 343 344 344 345 344 344 345 345 345 345 345 345 345 344 346 348 349
338 336 336 337 338 338 338 339 340 340 341 341 339 340 345 348 347 346 346 344 342 341 341 341 340 341 342 343 344 344 344 344 345 344 345 345 344 344 344 344 345 346
345 342 339 337 336 337 339 339 340 342 343 345 345 344 345 348 349 348 348 347 344 342 341 340 339 339 340 341 342 343 343 343 344 344 344 345 344 344 344 343 343 343
350 348 348 345 341 338 339 342 345 346 347 348 348 348 347 348 348 347 347 346 345 345 343 341 339 338 338 339 339 341 342 342 342 343 342 343 344 344 344 344 345 344
349 347 349 352 351 346 342 344 349 351 350 349 349 349 348 348 348 347 345 343 343 343 343 342 341 340 338 338 338 339 340 340 341 341 341 341 341 342 343 343 344 344
352 348 347 352 355 353 349 348 352 353 351 350 349 349 348 348 348 348 346 344 342 341 341 341 342 342 340 340 340 338 337 338 339 339 340 340 340 340 341 342 342 342
353 351 349 349 352 355 353 352 353 353 351 349 348 348 348 347 347 346 346 346 345 344 343 342 341 341 341 341 342 341 339 337 337 336 336 337 338 339 338 338 339 338
352 352 351 351 353 354 354 353 353 353 351 350 348 348 348 349 347 345 345 345 346 346 346 345 343 342 341 341 341 342 341 339 337 335 335 334 335 337 338 337 335 333
352 352 352 352 353 354 354 353 354 353 351 349 349 348 348 349 349 348 345 344 345 346 346 346 345 344 343 342 341 340 340 338 336 335 335 335 335 337 339 339 337 334
352 353 353 353 353 352 352 353 353 353 351 349 348 348 348 348 349 349 348 345 344 345 346 347 346 345 344 343 342 342 341 340 338 335 334 334 335 336 336 338 340 339
352 352 353 354 353 353 351 350 350 351 351 349 347 347 348 348 348 349 349 347 345 345 345 346 346 346 346 345 344 344 344 344 343 342 340 337 335 334 333 333 335 336
351 351 352 352 353 353 351 349 349 348 349 348 347 347 348 348 348 348 349 348 347 346 345 346 346 346 346 346 346 346 346 346 346 346 346 345 342 339 336 335 334 334
352 352 352 352 352 352 351 351 351 349 348 347 346 346 347 348 349 349 349 349 348 347 346 346 345 345 345 346 347 347 347 347 347 347 348 348 348 346 344 342 341 340
352 352 353 353 352 352 352 352 351 352 351 350 348 347 347 348 349 349 348 348 348 347 347 346 346 345 345 346 347 347 348 348 349 349 350 350 350 349 348 347 346 345
348 349 350 351 351 352 352 352 352 352 351 351 351 350 349 350 351 351 350 348 347 347 347 346 346 347 347 347 348 348 349 349 350 350 350 350 350 349 349 349 348 347
344 346 347 347 347 349 349 351 351 351 352 351 351 351 351 351 351 352 352 351 349 348 347 346 345 345 347 348 348 349 349 349 349 349 349 349 349 349 349 349 349 348
335 341 343 343 343 345 345 346 348 348 349 349 350 350 350 350 350 351 351 351 351 350 350 350 349 348 349 348 349 349 348 348 348 348 348 347 346 346 347 348 348 349
326 331 333 332 334 337 340 342 344 346 347 347 347 347 348 348 348 348 349 349 349 349 349 350 350 350 351 351 351 350 349 348 348 347 347 347 346 347 347 348 348 348
319 320 321 321 322 325 329 332 335 337 341 344 345 346 346 347 347 347 347 348 349 349 349 350 350 350 350 351 351 350 350 349 349 349 349 348 348 349 349 350 350 350
Wind_Speed
25 23 21 19 16 14 14 13 12 11 10 9 9 9 9 9 10 10 11 11 10 11 11 12 13 13 12 11 11 11 11 11 11 10 11 11 10 10 10 9 10 12
25 24 22 21 18 16 15 14 13 12 10 9 9 8 8 9 10 10 11 11 11 11 11 11 12 12 11 11 11 10 10 11 11 10 10 10 10 11 10 10 12 13
24 24 23 22 20 18 17 16 14 13 12 11 9 9 9 10 10 10 11 11 10 10 9 9 10 10 10 11 11 10 9 10 10 9 10 10 10 11 11 11 14 15
23 23 23 23 22 19 18 17 16 14 14 13 11 11 11 11 11 10 11 11 10 10 9 8 9 9 9 10 10 10 10 9 8 9 9 10 10 11 11 12 15 17
23 23 23 23 23 21 19 18 17 15 15 14 12 12 12 12 11 11 11 11 10 10 10 9 9 9 9 9 9 10 11 9 8 9 10 9 9 9 10 11 13 15
23 23 22 22 22 22 20 18 17 16 15 14 13 13 13 12 12 12 11 11 10 11 11 10 10 10 9 9 9 10 11 10 10 10 10 9 9 9 8 9 11 12
22 23 23 22 22 22 21 19 17 17 15 14 15 14 13 13 13 13 12 11 11 12 11 11 11 11 10 10 11 10 11 11 11 11 11 9 9 10 9 8 9 10
22 22 22 22 22 22 22 20 19 18 17 16 16 15 15 14 14 13 13 12 12 13 13 12 13 13 12 12 12 11 12 12 12 12 12 10 10 10 9 9 9 10
22 21 22 22 22 22 22 21 20 19 19 18 17 17 17 17 15 14 13 13 13 13 14 13 13 13 13 13 12 12 12 12 12 13 12 11 11 11 10 10 11 11
22 21 20 21 23 22 21 20 20 19 20 19 18 18 19 19 18 16 15 14 14 14 14 14 14 13 13 14 13 13 13 13 13 14 13 12 12 12 11 11 12 12
23 21 21 21 22 22 22 20 19 18 19 19 19 19 20 20 20 19 18 17 16 15 15 16 15 15 14 14 14 14 15 15 14 15 14 13 13 13 13 12 13 13
24 23 22 21 21 22 22 21 20 19 19 20 20 20 21 21 21 20 19 19 18 17 17 17 16 16 15 15 14 15 15 15 16 16 15 14 14 14 14 13 13 14
26 23 22 22 23 23 23 23 22 21 21 21 21 22 22 22 22 22 21 19 18 17 17 17 17 17 17 16 15 15 15 15 16 16 16 16 15 14 14 14 14 14
26 24 22 22 22 23 23 24 25 24 23 23 23 23 23 23 22 22 23 21 18 16 15 15 16 17 18 18 18 17 16 16 16 16 16 16 16 15 15 14 14 14
25 24 23 22 22 23 23 24 25 26 26 25 24 24 24 24 23 22 22 23 21 19 17 16 15 16 16 17 18 19 19 19 18 18 17 17 17 17 16 16 16 15
27 26 24 23 24 25 24 23 26 27 27 26 26 25 24 25 26 25 23 23 23 22 21 19 18 16 15 14 15 16 18 19 20 20 20 19 19 18 18 18 18 18
27 27 26 25 25 26 25 24 26 28 28 27 26 25 24 24 27 29 27 25 24 24 24 22 21 19 16 15 14 13 13 15 17 19 20 21 21 22 21 20 20 20
24 26 26 26 26 26 26 26 26 28 29 29 27 24 21 22 24 29 31 29 27 26 25 24 23 22 21 20 19 17 16 15 15 16 17 18 19 21 22 22 22 22
20 21 23 24 24 25 26 27 27 28 29 29 28 26 22 19 21 27 31 31 30 29 27 26 25 25 25 24 23 22 21 20 19 18 17 16 16 17 18 19 20 21
17 17 18 19 21 22 23 24 25 27 28 28 29 28 25 21 21 24 29 31 30 29 27 27 26 26 25 25 24 23 23 22 22 21 20 19 18 18 18 18 18 19
14 15 15 16 17 18 20 21 22 23 25 26 27 28 28 25 23 23 27 29 30 29 28 27 26 26 26 24 23 23 24 24 24 24 24 24 24 24 24 24 23 24
11 12 12 12 14 15 17 18 19 19 20 22 23 25 25 25 24 24 25 28 29 30 30 29 27 25 24 23 23 23 24 24 24 24 25 26 27 27 27 28 28 28
7 9 10 9 10 12 14 15 17 17 17 18 19 21 21 21 21 22 23 25 26 26 27 29 30 28 26 24 24 24 25 25 25 25 26 27 28 28 28 28 28 29
4 5 7 6 7 9 11 13 15 16 16 16 17 18 18 19 19 19 20 20 20 19 19 22 25 26 25 25 26 26 28 29 29 30 31 33 34 33 33 33 32 31
8 7 6 3 2 4 6 8 10 12 14 16 16 15 16 17 19 18 17 18 19 22 23 24 24 23 22 22 24 27 30 32 34 35 37 38 38 38 37 36 36 36
8 8 7 5 4 2 0 1 3 5 8 11 12 12 13 15 18 17 15 14 18 22 24 25 26 25 24 24 26 28 30 32 34 36 38 39 40 39 38 37 37 38
Wind_Direction
205 206 207 210 210 214 218 215 210 207 200 196 198 198 196 199 201 199 203 204 202 206 207 207 211 215 217 222 226 224 221 224 222 219 223 224 221 219 216 213 205 197
207 206 206 209 211 216 221 220 215 213 213 208 201 199 201 206 209 207 206 206 204 207 209 208 213 218 221 224 231 230 223 225 225 222 228 230 222 220 219 214 210 204
208 207 206 208 211 215 220 222 220 218 217 214 206 202 204 207 213 214 211 209 207 210 211 209 215 222 222 225 233 235 229 228 228 227 234 236 229 226 225 218 213 211
210 210 208 210 214 217 219 220 221 220 217 214 209 206 206 208 212 215 215 214 210 212 214 211 218 226 224 225 233 235 233 234 233 232 237 241 237 230 230 227 220 219
213 214 213 213 216 219 220 219 219 218 217 213 209 209 210 211 213 215 217 216 214 214 214 212 218 226 227 229 233 233 232 234 236 237 239 241 243 238 235 237 234 231
215 217 218 217 218 220 221 221 219 218 218 215 213 212 213 213 215 216 214 214 219 221 217 216 220 224 227 232 235 235 234 234 234 237 239 238 240 240 238 240 243 243
217 218 220 220 219 221 223 224 224 222 221 221 219 217 217 217 215 215 215 213 218 225 223 221 224 224 223 230 235 236 237 238 236 236 238 238 237 241 242 240 240 239
219 219 221 222 221 221 223 225 227 226 226 225 223 219 221 225 220 216 217 215 217 225 226 223 225 224 222 228 235 236 237 240 242 241 240 239 237 239 242 243 242 240
221 222 223 223 223 222 222 223 225 228 227 227 226 220 219 226 228 223 220 219 219 225 230 229 228 224 221 226 233 237 239 241 243 246 245 243 241 240 241 246 251 254
221 225 227 227 225 223 222 222 223 225 226 228 231 226 220 222 228 229 227 226 224 225 230 234 233 229 224 225 229 234 240 243 245 248 249 250 249 245 245 248 254 260
219 221 226 231 230 226 223 220 219 222 227 231 235 234 229 226 228 231 232 233 232 229 229 233 236 237 233 230 229 230 235 240 244 248 251 253 252 250 249 249 253 259
217 215 216 222 230 231 226 218 216 221 228 232 237 239 238 235 234 234 235 236 237 236 235 235 236 239 239 238 237 234 233 236 239 244 249 253 255 254 252 252 253 258
218 218 217 219 224 227 226 221 218 223 227 230 234 239 242 242 240 240 241 242 242 241 241 241 241 242 243 244 243 242 240 238 238 241 245 250 255 257 255 255 256 257
218 222 223 224 224 225 225 222 221 224 226 229 233 237 241 245 244 243 243 245 248 250 251 251 251 250 249 248 249 250 249 248 246 246 247 249 252 256 259 259 260 260
218 220 220 221 225 228 226 223 223 225 226 228 232 236 239 243 246 247 246 245 247 250 253 256 258 258 257 256 256 256 257 257 256 256 256 254 252 252 255 259 261 261
220 220 220 220 224 228 228 224 224 226 227 229 231 235 238 239 241 245 246 245 245 247 250 253 256 260 264 265 265 266 265 265 264 263 261 261 260 257 255 257 260 262
223 223 223 224 227 229 229 228 227 227 228 228 230 234 239 239 239 240 242 244 245 246 249 251 254 258 264 268 270 273 274 274 272 270 267 264 264 264 263 263 264 266
221 222 223 225 228 230 231 231 231 230 230 230 230 233 237 240 239 238 239 241 242 244 247 250 252 255 258 262 265 266 270 274 276 276 274 270 267 266 268 269 270 271
210 214 216 219 222 225 228 230 231 231 231 231 233 234 236 238 238 236 236 237 240 242 244 247 249 250 252 255 258 260 262 265 270 273 275 275 273 271 271 273 274 276
193 197 202 208 213 218 223 227 229 230 231 232 234 236 237 237 237 235 234 235 236 239 241 245 248 249 250 250 251 253 256 258 261 265 268 271 272 272 272 273 274 276
187 187 191 197 204 212 218 222 225 228 231 233 235 236 237 238 237 234 232 232 234 235 238 242 246 249 250 249 249 251 253 254 256 259 263 266 268 269 270 270 271 271
197 198 199 201 206 212 216 219 223 225 228 231 233 235 237 238 238 235 233 232 232 233 236 239 243 245 247 246 247 249 251 253 255 256 260 264 266 268 269 269 269 269
196 205 210 220 228 229 229 230 231 232 232 232 235 237 239 241 242 239 235 233 232 234 238 241 243 244 245 245 245 248 251 254 256 257 259 262 265 267 269 270 271 270
122 175 198 223 245 250 250 248 245 246 246 245 245 245 246 248 248 245 240 237 236 238 242 246 249 250 252 253 253 253 256 258 260 262 264 265 266 267 268 270 271 271
102 123 144 153 210 249 259 258 253 252 252 251 252 254 256 256 256 259 261 259 256 252 248 248 250 253 256 260 260 259 259 260 261 263 264 266 267 267 268 269 271 271
101 109 116 107 100 105 47 299 280 273 264 259 260 262 265 264 262 262 266 264 259 256 253 250 250 252 254 257 258 259 259 260 261 262 264 265 267 268 268 269 270 270